Location: Chenereilles
(45.4866°N, 4.0790°E)
Time: 02:04:53
(UTC+00:00)

Cosmos 2297 Rocket - Pass Details

Date: 12 November 2019
Orbit: 839 x 843 km, 71.0° (Epoch: 07 December)

Event Time Altitude Azimuth Distance (km) Brightness Sun altitude
Rises 17:39:27 0° 335° (NNW) 3,407 5.5 -14.6°
Reaches altitude 10° 17:41:57 10° 339° (NNW) 2,469 4.8 -15.0°
Maximum altitude 17:47:34 64° 61° (ENE) 930 2.1 -16.0°
Drops below altitude 10° 17:53:10 10° 143° (SE) 2,456 4.3 -16.9°
Sets 17:55:38 0° 146° (SSE) 3,387 5.1 -17.4°
